• Join FlightAware (Why Join?)
  • Login
  • US Flag 
04:04AM EDT


 

Airport Tracker/Info


-or-


 

Live Flight TrackerFlight Track Log ✈ SKW5196 ✈ 26-Apr-2013 ✈ KORD - KSLC

Flight Track Log - Related Links

Times and Time Zones

All times are in EDT time to prevent confusion due to time zone crossing. See the SKW5196 flight status page for this flight to view local times or setup timezone preferences in your user account.

Time Position Orientation Groundspeed Altitude Reporting Facility
EDT Latitude Longitude Course Direction KTS MPH feet Rate Location/Type
10:00PM 41.9631 -87.9433 261° West 179 206 34,000  Level Chicago Center
10:01PM 41.9331 -88.0067 238° Southwest 205 236 4,400 -13,620 Descending Chicago Center
10:02PM 41.9000 -88.1000 245° Southwest 256 295 5,400 1,620 Climbing Chicago TRACON
10:03PM 41.9369 -88.1728 304° West 273 314 7,800 2,280 Climbing Chicago Center
10:04PM 41.9286 -88.2747 264° West 279 321 10,000 2,400 Climbing Chicago Center
10:05PM 41.9153 -88.3867 261° West 300 345 12,800 2,460 Climbing Chicago Center
10:06PM 41.8855 -88.7319 261° West  Level FlightAware Approximate
10:06PM 41.9033 -88.4953 262° West 300 345 15,100  Level Chicago Center
10:07PM 41.8897 -88.6328 262° West 307 353 16,900 1,500 Climbing Chicago Center
10:08PM 41.8750 -88.7636 261° West 346 398 18,200 1,440 Climbing Chicago Center
10:09PM 41.8633 -88.8989 263° West 365 420 19,900 1,560 Climbing Chicago Center
10:10PM 41.8508 -89.0342 263° West 367 422 21,500 1,500 Climbing Chicago Center
10:11PM 41.8378 -89.1761 263° West 383 441 23,000 1,440 Climbing Chicago Center
10:12PM 41.8278 -89.3203 265° West 390 449 24,500 1,380 Climbing Chicago Center
10:13PM 41.8219 -89.4647 267° West 390 449 25,900 1,560 Climbing Chicago Center
10:14PM 41.8211 -89.6369 270° West 388 447 27,700 1,560 Climbing Chicago Center
10:15PM 41.8189 -89.7789 269° West 387 445 29,100 1,440 Climbing Chicago Center
10:16PM 41.8172 -89.9236 269° West 376 433 30,700 1,260 Climbing Chicago Center
10:18PM 41.8164 -90.0583 270° West 368 423 31,700 840 Climbing Chicago Center
10:19PM 41.8139 -90.1947 269° West 369 425 32,500 780 Climbing Chicago Center
10:20PM 41.8111 -90.3333 269° West 373 429 33,300 720 Climbing Chicago Center
10:21PM 41.8078 -90.4717 268° West 374 430 34,000 300 Climbing Chicago Center
10:22PM 41.8050 -90.6164 269° West 386 444 34,000  Level Chicago Center
10:23PM 41.7983 -90.7722 267° West 415 478 34,000  Level Chicago Center
10:24PM 41.7939 -90.9581 268° West 416 479 34,000  Level Chicago Center
10:25PM 41.7897 -91.1133 268° West 420 483 34,000  Level Chicago Center
10:26PM 41.7850 -91.2703 268° West 422 486 34,000  Level Chicago Center
10:27PM 41.7806 -91.4253 268° West 419 482 34,000  Level Chicago Center
10:28PM 41.7767 -91.5828 268° West 423 487 34,000  Level Chicago Center
10:29PM 41.7711 -91.7406 267° West 426 490 34,000  Level Chicago Center
10:30PM 41.7653 -91.8994 267° West 428 493 34,000  Level Chicago Center
10:31PM 41.7597 -92.0578 267° West 429 494 34,000  Level Chicago Center
10:32PM 41.7525 -92.2469 267° West 428 493 34,000  Level Chicago Center
10:33PM 41.7469 -92.4033 267° West 424 488 34,000  Level Chicago Center
10:34PM 41.7397 -92.5603 267° West 425 489 34,000  Level Chicago Center
10:35PM 41.7333 -92.7181 267° West 426 490 34,000  Level Chicago Center
10:36PM 41.7261 -92.8842 267° West 427 491 34,000  Level Chicago Center
10:36PM 41.7256 -92.9181 269° West 428 493 34,000  Level Minneapolis Center
10:37PM 41.7169 -93.1069 267° West 429 494 34,000  Level Minneapolis Center
10:38PM 41.7089 -93.2631 266° West 426 490 34,000  Level Minneapolis Center
10:39PM 41.7019 -93.4211 267° West 428 493 34,000  Level Minneapolis Center
10:40PM 41.6947 -93.5758 266° West 424 488 34,000  Level Minneapolis Center
10:41PM 41.6847 -93.7700 266° West 438 504 34,000  Level Minneapolis Center
10:42PM 41.6753 -93.9286 265° West 437 503 34,000  Level Minneapolis Center
10:43PM 41.6653 -94.0908 265° West 438 504 34,000  Level Minneapolis Center
10:44PM 41.6597 -94.2475 267° West 433 498 34,000  Level Minneapolis Center
10:46PM 41.6511 -94.4075 266° West 434 499 34,000  Level Minneapolis Center
10:47PM 41.6408 -94.5692 265° West 437 503 34,000  Level Minneapolis Center
10:48PM 41.6322 -94.7317 266° West 440 506 34,000  Level Minneapolis Center
10:49PM 41.6219 -94.8944 265° West 441 507 34,000  Level Minneapolis Center
10:50PM 41.6128 -95.0558 266° West 436 502 34,000  Level Minneapolis Center
10:51PM 41.6011 -95.2517 266° West 442 509 34,000  Level Minneapolis Center
10:52PM 41.5908 -95.4147 265° West 443 510 34,000  Level Minneapolis Center
10:53PM 41.5789 -95.5767 264° West 440 506 34,000  Level Minneapolis Center
10:54PM 41.5683 -95.7525 265° West 443 510 34,000  Level Minneapolis Center
10:55PM 41.5592 -95.9164 266° West 443 510 34,000  Level Minneapolis Center
10:56PM 41.5478 -96.0483 263° West 444 511 34,000  Level Minneapolis Center
10:57PM 41.5344 -96.2456 265° West 445 512 34,000  Level Minneapolis Center
10:58PM 41.5197 -96.4178 264° West 444 511 34,000  Level Minneapolis Center
10:59PM 41.5072 -96.5825 264° West 447 514 34,000  Level Minneapolis Center
11:00PM 41.4950 -96.7456 264° West 445 512 34,000  Level Minneapolis Center
11:01PM 41.4781 -96.9436 264° West 448 516 34,000  Level Minneapolis Center
11:02PM 41.4656 -97.1100 264° West 452 520 34,000  Level Minneapolis Center
11:03PM 41.4525 -97.2769 264° West 454 522 34,000  Level Minneapolis Center
11:04PM 41.4383 -97.4436 264° West 454 522 34,000  Level Minneapolis Center
11:05PM 41.4256 -97.6100 264° West 452 520 34,000  Level Minneapolis Center
11:06PM 41.4103 -97.7783 263° West 457 526 34,000  Level Minneapolis Center
11:07PM 41.3897 -98.0150 263° West 460 529 34,000  Level Minneapolis Center
11:08PM 41.3753 -98.1781 263° West 460 529 34,000  Level Minneapolis Center
11:09PM 41.3594 -98.3486 263° West 463 533 34,000  Level Minneapolis Center
11:10PM 41.3431 -98.5264 263° West 466 536 34,000  Level Minneapolis Center
11:11PM 41.3267 -98.6978 263° West 466 536 34,000  Level Minneapolis Center
11:13PM 41.3092 -98.8689 262° West 467 537 34,000  Level Minneapolis Center
11:14PM 41.2894 -99.0747 263° West 468 539 34,000  Level Minneapolis Center
11:15PM 41.2725 -99.2653 263° West 472 543 34,000  Level Minneapolis Center
11:16PM 41.2550 -99.4369 262° West 471 542 34,000  Level Minneapolis Center
11:17PM 41.2344 -99.6383 262° West 474 545 34,000  Level Denver Center
11:18PM 41.2139 -99.8325 262° West 475 547 34,000  Level Denver Center
11:19PM 41.1961 -99.9992 262° West 478 550 34,000  Level Denver Center
11:20PM 41.1756 -100.1931 262° West 478 550 34,000  Level Denver Center
11:21PM 41.1572 -100.3603 262° West 480 552 34,000  Level Denver Center
11:22PM 41.1397 -100.5258 262° West 478 550 34,000  Level Denver Center
11:23PM 41.1181 -100.7194 262° West 480 552 34,000  Level Denver Center
11:24PM 41.0983 -100.8850 261° West 481 554 34,000  Level Denver Center
11:25PM 41.0767 -101.0786 262° West 480 552 34,000  Level Denver Center
11:26PM 41.0575 -101.2456 261° West 481 554 34,000  Level Denver Center
11:27PM 41.0339 -101.4400 261° West 481 554 34,000  Level Denver Center
11:28PM 41.0139 -101.6072 261° West 481 554 34,000  Level Denver Center
11:29PM 40.9889 -101.8036 260° West 485 558 34,000  Level Denver Center
11:30PM 40.9689 -101.9731 261° West 488 562 34,000  Level Denver Center
11:31PM 40.9475 -102.1411 260° West 485 558 34,000  Level Denver Center
11:32PM 40.9233 -102.3397 261° West 491 565 34,000  Level Denver Center
11:33PM 40.9014 -102.5083 260° West 488 562 34,000  Level Denver Center
11:34PM 40.8758 -102.7053 260° West 488 562 34,000  Level Denver Center
11:35PM 40.8525 -102.8739 260° West 489 563 34,000  Level Denver Center
11:36PM 40.8294 -103.0542 260° West 488 562 34,000  Level Denver Center
11:37PM 40.8056 -103.2331 260° West 491 565 34,000  Level Denver Center
11:38PM 40.7819 -103.4125 260° West 493 567 34,000  Level Denver Center
11:39PM 40.7564 -103.5911 259° West 494 568 34,000  Level Denver Center
11:40PM 40.7308 -103.7689 259° West 491 565 34,000  Level Denver Center
11:41PM 40.7061 -103.9481 260° West 494 568 34,000  Level Denver Center
11:42PM 40.6803 -104.1297 259° West 504 580 34,000  Level Denver Center
11:43PM 40.6544 -104.3078 259° West 494 568 34,000  Level Denver Center
11:45PM 40.6244 -104.5156 259° West 493 567 34,000  Level Denver Center
11:46PM 40.5981 -104.6917 259° West 489 563 34,000  Level Denver Center
11:47PM 40.5714 -104.8686 259° West 490 564 34,000  Level Denver Center
11:48PM 40.5453 -105.0450 259° West 490 564 34,000  Level Denver Center
11:49PM 40.5183 -105.2164 258° West 480 552 34,000  Level Denver Center
11:50PM 40.4908 -105.3931 258° West 487 560 34,000  Level Denver Center
11:51PM 40.4631 -105.5689 258° West 489 563 34,000  Level Denver Center
11:52PM 40.4353 -105.7467 258° West 492 566 34,000  Level Denver Center
11:53PM 40.4078 -105.9214 258° West 488 562 34,000  Level Denver Center
11:54PM 40.3792 -106.0975 258° West 490 564 34,000  Level Denver Center
11:55PM 40.3506 -106.2744 258° West 489 563 34,000  Level Denver Center
11:56PM 40.3192 -106.4678 258° West 487 560 34,000  Level Denver Center
11:57PM 40.2944 -106.6164 258° West 487 560 34,000  Level Denver Center
11:58PM 40.2656 -106.7886 258° West 486 559 34,000  Level Denver Center
11:59PM 40.2311 -106.9903 257° West 485 558 34,000  Level Denver Center
12:00AM 40.2025 -107.1542 257° West 484 557 34,000  Level Denver Center
12:01AM 40.1708 -107.3469 258° West 485 558 34,000  Level Denver Center
12:02AM 40.1411 -107.5117 257° West 487 560 34,000  Level Denver Center
12:03AM 40.1033 -107.7306 257° West 486 559 34,000  Level Denver Center
12:04AM 40.0744 -107.8939 257° West 484 557 34,000  Level Denver Center
12:05AM 40.0725 -108.0594 269° West 484 557 34,000  Level Denver Center
12:06AM 40.0822 -108.2514 274° West 477 549 34,000  Level Denver Center
12:07AM 40.0897 -108.4164 273° West 477 549 34,000  Level Denver Center
12:08AM 40.0975 -108.6089 273° West 479 551 34,000  Level Denver Center
12:09AM 40.1044 -108.7717 273° West 474 545 34,000  Level Denver Center
12:10AM 40.1106 -108.9356 273° West 474 545 34,000  Level Denver Center
12:11AM 40.1136 -109.0178 273° West 473 544 34,000  Level Salt Lake Center
12:11AM 40.1175 -109.1253 273° West 472 543 34,000 -180 Level Denver Center
12:12AM 40.1236 -109.2881 273° West 471 542 33,800 -540 Descending Denver Center
12:13AM 40.1253 -109.3708 272° West 473 544 33,300 -1,080 Descending Salt Lake Center
12:14AM 40.1308 -109.5356 273° West 476 548 32,300 -960 Descending Salt Lake Center
12:15AM 40.1361 -109.7008 272° West 477 549 31,400 -1,080 Descending Salt Lake Center
12:16AM 40.1433 -109.8939 273° West 476 548 30,200 -720 Descending Salt Lake Center
12:17AM 40.1475 -110.0592 272° West 477 549 30,000 -120 Descending Salt Lake Center
12:18AM 40.1500 -110.2489 271° West 469 540 30,000  Level Salt Lake Center
12:19AM 40.1464 -110.4086 268° West 461 531 30,000  Level Salt Lake Center
12:20AM 40.1464 -110.5608 270° West 444 511 30,000  Level Salt Lake Center
12:21AM 40.1433 -110.7417 269° West 447 514 30,000  Level Salt Lake Center
12:22AM 40.1425 -110.8994 270° West 452 520 30,000 -1,320 Level Salt Lake Center
12:23AM 40.1392 -111.0781 269° West 443 510 27,400 -2,640 Descending Salt Lake Center
12:24AM 40.1375 -111.2258 269° West 414 476 24,700 -2,580 Descending Salt Lake Center
12:25AM 40.1353 -111.3694 269° West 397 457 22,200 -2,580 Descending Salt Lake Center
12:26AM 40.1325 -111.5053 269° West 377 434 19,500 -2,340 Descending Salt Lake Center
12:26AM 40.1339 -111.5661 272° West 366 421 19,000 -540 Descending Salt Lake Center
12:27AM 40.1619 -111.6303 300° West 363 418 19,000 -60 Level Salt Lake Center
12:28AM 40.2092 -111.7475 298° West 364 419 18,900 -780 Descending Salt Lake Center
12:29AM 40.2933 -111.8153 328° Northwest 353 406 17,500 -1,680 Descending Salt Lake Center
12:30AM 40.3750 -111.8775 330° Northwest 338 389 15,600 -1,920 Descending Salt Lake Center
12:31AM 40.4517 -111.9364 330° Northwest 320 368 13,700 -1,860 Descending Salt Lake Center
12:32AM 40.5281 -111.9956 330° Northwest 319 367 11,800 -1,320 Descending Salt Lake Center
12:33AM 40.6064 -112.0558 330° Northwest 324 373 11,000 -420 Descending Salt Lake Center
12:34AM 40.6958 -112.0842 346° North 337 388 11,000  Level Salt Lake Center
12:35AM 40.7978 -112.0986 354° North 289 333 11,000 -360 Level Salt Lake Center
12:36AM 40.8619 -112.1039 356° North 227 261 10,300 -1,380 Descending Salt Lake Center
12:37AM 40.9181 -112.0975 North 222 255 8,300 -1,860 Descending Salt Lake Center
12:38AM 40.9283 -112.0206 80° East 217 250 6,600 -1,080 Descending Salt Lake Center
12:39AM 40.8928 -111.9694 133° Southeast 194 223 6,100 -720 Descending Salt Lake Center
12:40AM 40.8469 -111.9622 173° South 159 183 5,200 -840 Descending Salt Lake Center
12:41AM 40.8103 -111.9628 181° South 135 155 4,500 -720 Descending Salt Lake Center
12:43AM 40.7833 -111.9667 194° South  Level FlightAware Approximate